Shannon, Ireland

3:39 AM IST on April 23, 2018 (GMT +0100)
Shannon

Weather History for EINN - December, 2012

Change the Weather History Date:

Saturday, December 1, 2012

  Actual Average Record
Temperature  
Mean Temperature 41 °F -  
Max Temperature 44 °F 48 °F 59 °F (2015)
Min Temperature 38 °F 38 °F 21 °F (2010)
Degree Days  
Heating Degree Days 24    
Moisture  
Dew Point 40 °F    
Average Humidity 94    
Maximum Humidity 100    
Minimum Humidity 87    
Precipitation  
Precipitation 0.02 in 0.13 in - ()
Sea Level Pressure  
Sea Level Pressure 30.10 in    
Wind  
Wind Speed 4 mph ()    
Max Wind Speed 7 mph    
Max Gust Speed -    
Visibility 6.1 miles    
Events Rain    
Averages and records for this station are not official NWS values.
T = Trace of Precipitation, MM = Missing Value Source: Averaged Metar Reports

Daily Weather History Graph

Daily Weather History Graph

Search for Another Location

Airport or City:

Astronomy

Dec. 01, 2012 Rise Set
Actual Time 8:25 AM GMT 4:24 PM GMT
Civil Twilight 7:44 AM GMT 5:04 PM GMT
Nautical Twilight 7:00 AM GMT 5:48 PM GMT
Astronomical Twilight 6:19 AM GMT 6:29 PM GMT
Moon 7:07 PM GMT (12/1) 10:24 AM GMT (12/1)
Length of Visible Light 9h 20m
Length of Day
7h 59m
Waning Gibbous, 93% of the Moon is Illuminated
Dec 1
Waning Gibbous
Dec 6
Last Quarter
Dec 13
New
Dec 20
First Quarter
Dec 28
Full

Hourly Weather History & Observations

Time (GMT) Temp. Windchill Dew Point Humidity Pressure Visibility Wind Dir Wind Speed Gust Speed Precip Events Conditions
12:00 AM 39 °F - 38 °F 95% 30.09 in 6 mi North 4.5 mph - -   Partly Cloudy
12:00 AM 39.2 °F 35.9 °F 37.4 °F 93% 30.06 in 5.6 mi North 4.6 mph - N/A   Overcast
12:30 AM 39.2 °F 37.0 °F 37.4 °F 93% 30.06 in 6.2 mi North 3.5 mph - N/A   Mostly Cloudy
1:00 AM 39.2 °F 37.0 °F 39.2 °F 100% 30.09 in 6.2 mi West 3.5 mph - N/A   Overcast
1:30 AM 39.2 °F 37.0 °F 39.2 °F 100% 30.09 in 6.2 mi WNW 3.5 mph - N/A   Overcast
2:00 AM 39.2 °F 35.9 °F 37.4 °F 93% 30.09 in 6.2 mi West 4.6 mph - N/A   Overcast
2:30 AM 39.2 °F 37.0 °F 37.4 °F 93% 30.09 in 6.2 mi West 3.5 mph - N/A   Mostly Cloudy
3:00 AM 39.2 °F 35.9 °F 37.4 °F 93% 30.09 in 6.2 mi SW 4.6 mph - N/A   Mostly Cloudy
3:30 AM 39.2 °F 37.0 °F 39.2 °F 100% 30.09 in 5.0 mi WSW 3.5 mph - N/A   Mostly Cloudy
4:00 AM 39.2 °F 35.9 °F 39.2 °F 100% 30.09 in 4.3 mi WSW 4.6 mph - N/A   Mostly Cloudy
4:30 AM 39.2 °F 37.0 °F 39.2 °F 100% 30.09 in 3.7 mi SW 3.5 mph - N/A   Overcast
5:00 AM 41.0 °F 39.0 °F 39.2 °F 93% 30.06 in 4.3 mi West 3.5 mph - N/A   Mostly Cloudy
5:30 AM 41.0 °F 37.1 °F 41.0 °F 100% 30.06 in 4.3 mi WSW 5.8 mph - N/A   Mostly Cloudy
6:00 AM 41 °F - 40 °F 95% 30.09 in 6 mi SW 4.5 mph - - Rain Light Drizzle
6:00 AM 41.0 °F 37.1 °F 41.0 °F 100% 30.06 in 5.6 mi SW 5.8 mph - N/A   Mostly Cloudy
6:30 AM 41.0 °F 36.4 °F 39.2 °F 93% 30.06 in 6.2 mi SW 6.9 mph - N/A   Mostly Cloudy
7:00 AM 41.0 °F 38.0 °F 39.2 °F 93% 30.06 in 6.2 mi WSW 4.6 mph - N/A   Partly Cloudy
7:30 AM 39.2 °F 35.9 °F 39.2 °F 100% 30.06 in 6.2 mi West 4.6 mph - N/A   Mostly Cloudy
8:00 AM 41.0 °F 37.1 °F 39.2 °F 93% 30.09 in 6.2 mi West 5.8 mph - N/A   Mostly Cloudy
8:30 AM 39.2 °F 37.0 °F 39.2 °F 100% 30.09 in 6.2 mi WNW 3.5 mph - N/A   Scattered Clouds
9:00 AM 39.2 °F - 39.2 °F 100% 30.09 in 6.2 mi West 2.3 mph - N/A   Scattered Clouds
9:30 AM 39.2 °F 37.0 °F 39.2 °F 100% 30.09 in 6.2 mi NE 3.5 mph - N/A   Mostly Cloudy
10:00 AM 39.2 °F - 39.2 °F 100% 30.12 in 5.6 mi NE 2.3 mph - N/A Rain Light Rain Showers
10:30 AM 41.0 °F - 39.2 °F 93% 30.12 in 5.0 mi NNE 1.2 mph - N/A   Mostly Cloudy
11:00 AM 41.0 °F 39.0 °F 41.0 °F 100% 30.12 in 6.2 mi WNW 3.5 mph - N/A   Mostly Cloudy
11:30 AM 42.8 °F 41.1 °F 41.0 °F 93% 30.12 in 5.0 mi North 3.5 mph - N/A   Mostly Cloudy
12:00 PM 43 °F - 41 °F 89% 30.14 in 11 mi North 2.2 mph - - Rain Light Drizzle
12:00 PM 42.8 °F - 41.0 °F 93% 30.12 in 6.2 mi North 2.3 mph - N/A   Mostly Cloudy
12:30 PM 42.8 °F 40.1 °F 42.8 °F 100% 30.12 in 6.2 mi NW 4.6 mph - N/A   Mostly Cloudy
1:00 PM 44.6 °F 43.1 °F 41.0 °F 87% 30.12 in 6.2 mi North 3.5 mph - N/A   Mostly Cloudy
1:30 PM 44.6 °F 42.2 °F 41.0 °F 87% 30.12 in 6.2 mi NNW 4.6 mph - N/A   Mostly Cloudy
2:00 PM 44.6 °F 41.4 °F 41.0 °F 87% 30.12 in 6.2 mi NNW 5.8 mph - N/A   Scattered Clouds
2:30 PM 44.6 °F 41.4 °F 41.0 °F 87% 30.12 in 6.2 mi NNW 5.8 mph - N/A   Scattered Clouds
3:00 PM 44.6 °F 42.2 °F 41.0 °F 87% 30.12 in 6.2 mi NW 4.6 mph - N/A   Scattered Clouds
3:30 PM 42.8 °F - 41.0 °F 93% 30.12 in 6.2 mi WNW 2.3 mph - N/A   Scattered Clouds
4:00 PM 42.8 °F - 41.0 °F 93% 30.12 in 6.2 mi Calm Calm - N/A   Mostly Cloudy
4:30 PM 41.0 °F - 39.2 °F 93% 30.12 in 6.2 mi WNW 2.3 mph - N/A   Mostly Cloudy
5:00 PM 41.0 °F 39.0 °F 39.2 °F 93% 30.12 in 6.2 mi West 3.5 mph - N/A   Mostly Cloudy
5:30 PM 41.0 °F 38.0 °F 37.4 °F 87% 30.12 in 6.2 mi WNW 4.6 mph - N/A   Scattered Clouds
6:00 PM 40 °F - 38 °F 89% 30.14 in 12 mi West 4.5 mph - -   Scattered Clouds
6:00 PM 41.0 °F 39.0 °F 37.4 °F 87% 30.12 in 6.2 mi West 3.5 mph - N/A   Scattered Clouds
6:30 PM 41.0 °F 37.1 °F 39.2 °F 93% 30.12 in 6.2 mi West 5.8 mph - N/A   Scattered Clouds
7:00 PM 41.0 °F 38.0 °F 39.2 °F 93% 30.12 in 6.2 mi West 4.6 mph - N/A   Scattered Clouds
7:30 PM 41.0 °F 38.0 °F 39.2 °F 93% 30.12 in 6.2 mi WSW 4.6 mph - N/A   Mostly Cloudy
8:00 PM 42.8 °F 40.1 °F 41.0 °F 93% 30.12 in 6.2 mi West 4.6 mph - N/A   Mostly Cloudy
8:30 PM 42.8 °F - 41.0 °F 93% 30.12 in - WSW 2.3 mph - N/A   Clear
9:00 PM 42.8 °F 40.1 °F 41.0 °F 93% 30.12 in - WSW 4.6 mph - N/A   Clear
9:30 PM 42.8 °F 40.1 °F 41.0 °F 93% 30.12 in - WSW 4.6 mph - N/A   Clear
10:00 PM 42.8 °F 38.6 °F 41.0 °F 93% 30.09 in - SW 6.9 mph - N/A   Clear
10:30 PM 42.8 °F 39.3 °F 41.0 °F 93% 30.09 in 6.2 mi SW 5.8 mph - N/A Rain Light Rain
11:00 PM 42.8 °F 38.6 °F 41.0 °F 93% 30.09 in 6.2 mi SW 6.9 mph - N/A Rain Light Rain
11:30 PM 41.0 °F 37.1 °F 39.2 °F 93% 30.09 in 6.2 mi SSW 5.8 mph - N/A Rain Light Rain